Simultaneous Nadir Overpasses (SNOs) Predictions

Prediction of SNOs between GOES-16 and METOP-C Satellite Orbit:

Table of predicted SNOs for the next 14.0 days since TLE Epoch: 2/20/2021
Index Date Time (GOES-16) GOES-16 Lat,Lon METOP-C Lat,Lon Distance(km) Time Diff (sec)
1 02/20/2021 14:22:11 0.02, -75.20 -0.65, -72.32 328.67 80
2 02/22/2021 02:41:11 -0.00, -75.17 -0.38, -76.91 197.72 80
3 02/23/2021 02:17:51 -0.00, -75.18 0.73, -71.92 371.88 80
4 02/24/2021 14:36:44 0.00, -75.22 0.27, -76.48 143.79 80
5 02/25/2021 14:18:44 0.00, -75.23 -0.83, -71.48 426.25 80
6 02/27/2021 02:37:45 0.00, -75.21 -0.18, -76.08 98.72 80
7 02/28/2021 02:14:25 0.00, -75.22 0.93, -71.09 471.54 80
8 03/01/2021 14:33:17 -0.00, -75.27 0.09, -75.65 43.26 80
9 03/04/2021 02:31:38 0.00, -75.28 0.02, -75.25 3.95 80
